Showing default

ATS 3, 3029

Orbit data source: Space-Track

ATS 3, 3029 is a payload satellite owned by GSFC (US) in GEO that was launched on Sun, 05 Nov 1967 UTC via an ATLAS SLV-3 AGENA D launch vehicle from the Air Force Eastern Test Range (AFETR). Payloads include a variety of satellites, spacecraft, and rockets equipped with specific instruments for various scientific and technological missions. These include communications satellites like Starlink; space stations such as the ISS; scientific satellites like the Hubble; Earth observation satellites from companies like Planet Labs, Umbra, and HawkEye 360; GPS; miniature CubeSats for education and research; and military/defense satellites.

Loading next visibility...
ATS 3 details
Identifier
3029, 1967-111A
Orbit
GEO
Last TLE update15 hours ago
Origin
Flag of USGSFC (US)
ManufacturerHughes
MissionNon-operational Civil Com/Cal
Bus & MotorHS-306, JPL SR-28-3
Mass714 kg wet, 252 kg dry
Launch date (UTC)
1967-11-05 (57 years ago)
Launch vehicle
ATLAS SLV-3 AGENA D
Launch site
Air Force Eastern Test Range (AFETR)
Object type
Payload
Rocket body
Debris
Shape & HBRCyl, 1.6 m
Radar Cross Section2.769 m², Large (>1 m²)

Expand to show TLE details & history

TLE from 15 hours ago
0 ATS 3
1  3029U 67111A   25023.08881689 -.00000069  00000-0  00000+0 0  9995
2  3029   1.8624  84.1785 0015479  20.4942 304.8354  1.00271353209513
Epoch: 2025-01-23T02:07Z
Definitive object data (Epoch: 2025-01-23T02:07:53.779Z)
Latitude-1.06704°
Longitude-105.25553°
Altitude35,749.087 km
Speed3.077 km/s
True Right ascension03h 17m 33s
True Declination-1° 03' 57"
Sunlit
Object was in daylight at TLE epoch
Visualization TLE readout
Latitude-0.34482°
Longitude119.82026°
Altitude35,850.699 km
Speed3.07 km/s
Apparent Right ascension18h 17m 52s
Apparent Declination-6° 36' 30"
Sunlit
Object is in daylight
Visualization observer readout
Local Sidereal Time18:17:46
Azimuth179.967° S
Elevation43.475°
Doppler factor1
Orbital elements
Apogee altitude35,853.053 km
Perigee altitude35,722.516 km
Semi-major axis42,165.922 km
Eccentricity0.0015479
Inclination1.8624°
RAAN84.1785°
Arg. of periapsis20.4942°
True anomaly304.68965°
Mean anomaly304.8354°
Eccentric anomaly304.76254°
Mean motion0.25067 °/min
BSTARUnknown
Orbital period1436.16 mins
Loading historical data...
3029 neighbors
Authenticating...
Loading maneuver chart data...
Loading historical data...
Loading historical data...
Loading historical data...
Loading historical data...
Loading historical data...
Loading historical data...
Loading historical data...
Other satellites on launch #111 in the year 1967 (1967-11-05 UTC)

ATS 3 Visibility forecast

Observer location: undefined°, undefined

Span
Click to sort rows by Start time (UTC) header in descending order
Start Az.
Max El. time (UTC)
Max El. Az.
Max El.
End time (UTC)
End Az.
1440 mins2025-01-23 17:05:06.542Z179.967° S2025-01-24 10:23:06.542Z179.739° S35.702°2025-01-24 17:05:06.542Z179.974° S
|